Location: Esp�s Alto
(42.4476°N, 0.5876°E)
Time: 11:25:42
(UTC+00:00)

H-2A R/B - Pass Details

Date: 22 October 2019
Orbit: 530 x 652 km, 98.3° (Epoch: 20 November)

Event Time Altitude Azimuth Distance (km) Brightness Sun altitude
Rises 04:39:51 0° 5° (N) 2,830 6.1 -18.8°
Reaches altitude 10° 04:42:04 10° 359° (N) 1,945 5.1 -18.4°
Maximum altitude 04:46:02 41° 289° (WNW) 892 2.9 -17.7°
Enters shadow 04:47:14 33° 250° (WSW) 1,037 3.2 -17.5°
